Location: Hawks Ness
(60.2333°N, 1.1667°W)
Time: 00:04:01
(UTC+00:00)

Cosmos 1812 Rocket - Pass Details

Date: 22 October 2019
Orbit: 605 x 632 km, 82.5° (Epoch: 19 November)

Event Time Altitude Azimuth Distance (km) Brightness Sun altitude
Rises 05:07:11 0° 346° (NNW) 2,945 6.9 -14.7°
Reaches altitude 10° 05:09:27 10° 348° (NNW) 2,032 6.1 -14.4°
Maximum altitude 05:13:58 77° 74° (ENE) 656 3.8 -13.9°
Drops below altitude 10° 05:18:26 10° 162° (SSE) 2,009 6.4 -13.3°
Sets 05:20:39 0° 163° (SSE) 2,909 7.2 -13.0°
